Wind_Speed
23 24 22 22 21 21 20 18 18 16 13 11 11 10 10 9 6 6 7 12 14 11 7 3 3 1 7 4 6 2 2 3 4 5 5 11 4 5 8 13 7 6 12 9 25
24 23 21 21 22 21 19 18 16 15 13 11 9 8 9 8 4 6 9 13 12 11 8 1 6 3 2 3 4 3 4 5 2 1 5 6 5 10 7 9 6 16 17 22 22
26 25 24 23 22 20 19 17 16 14 12 11 9 7 8 5 1 3 12 11 9 8 8 3 2 3 3 4 5 3 4 4 3 5 5 10 4 5 14 4 12 23 27 24 22
27 26 25 23 22 20 18 16 14 13 12 10 8 7 5 1 1 5 12 10 7 4 5 2 1 2 2 4 3 3 6 4 1 4 2 4 12 5 10 3 13 21 26 26 24
27 26 22 23 20 19 18 16 15 13 10 9 7 5 2 2 1 8 10 8 5 4 5 1 1 2 2 2 3 2 3 7 4 5 6 2 3 3 5 6 18 22 25 24 21
25 24 20 22 19 20 19 17 14 12 9 6 3 4 4 0 4 8 9 6 7 5 6 1 1 2 1 4 2 2 6 6 4 5 2 1 2 3 10 20 24 23 23 21 20
26 23 19 19 18 19 17 16 11 10 6 3 3 5 3 3 7 8 10 6 6 7 5 4 2 1 2 2 3 8 3 2 4 4 1 1 5 8 17 25 27 24 23 22 19
28 25 19 19 16 17 17 12 9 7 4 5 5 3 2 6 9 10 9 5 7 5 5 3 3 3 3 7 3 1 3 1 1 6 1 4 7 4 21 27 25 24 23 23 22
28 26 19 20 14 15 14 9 7 7 6 4 6 3 2 5 12 9 12 7 3 5 6 3 2 2 4 4 4 2 3 5 2 8 3 4 4 3 26 24 21 23 24 24 23
31 28 20 20 13 15 13 7 2 8 2 2 3 0 4 7 7 10 14 6 4 2 0 2 2 3 4 4 4 3 3 4 3 2 3 4 8 3 15 17 20 24 24 26 25
32 28 20 20 13 15 12 1 2 1 6 4 2 1 6 10 4 9 13 4 1 0 2 1 5 2 2 2 4 4 2 2 2 2 2 7 9 9 18 21 20 25 30 30 27
31 26 19 17 12 14 11 3 1 3 3 2 3 2 7 6 3 10 12 2 3 1 3 6 3 0 2 1 1 2 1 3 2 2 1 4 10 11 9 16 30 33 33 32 29
31 26 19 16 10 14 12 7 2 1 1 1 1 1 3 2 2 9 12 3 3 4 5 4 3 1 1 3 3 2 1 2 1 6 4 4 8 8 7 18 27 33 35 31 34
30 28 18 15 7 13 9 10 2 2 3 2 2 1 3 2 1 4 9 5 3 2 3 4 1 1 0 3 1 2 3 3 3 3 4 3 6 6 4 3 9 21 35 31 30
31 28 12 13 12 8 14 7 2 1 3 1 3 1 3 1 1 0 8 3 2 2 4 0 1 1 1 2 2 2 1 2 1 2 4 3 1 7 2 4 4 3 26 31 22
33 22 7 14 14 14 12 4 2 3 3 1 1 1 1 3 3 1 1 4 2 1 4 2 2 3 1 2 2 1 1 1 2 1 1 5 5 5 2 4 2 6 20 27 27
31 14 9 18 17 13 6 1 3 4 5 6 3 4 3 3 3 2 1 4 2 4 2 2 1 1 3 2 1 5 3 2 4 2 5 4 1 8 5 3 5 11 20 23 23
25 9 14 22 18 12 3 3 4 4 4 4 5 8 3 3 3 3 3 1 2 3 2 2 5 2 5 2 4 2 4 2 4 2 3 3 5 4 3 6 7 15 24 22 20
20 7 24 26 16 11 1 5 1 2 4 7 9 3 2 2 2 3 4 4 5 3 4 2 3 1 3 3 2 3 0 2 1 1 2 3 6 2 3 5 7 13 20 19 17
15 5 26 20 14 10 5 3 2 3 4 4 2 4 4 6 6 6 2 3 4 2 3 3 3 2 2 4 4 4 2 3 3 1 4 5 5 3 2 3 4 5 15 15 12
12 4 24 23 11 10 4 2 2 3 6 4 4 5 4 4 5 4 4 3 3 3 2 4 3 3 2 3 6 2 2 2 0 2 3 1 5 3 3 8 10 5 17 14 10
9 3 17 22 10 5 2 3 3 4 3 2 1 3 3 5 5 4 4 5 5 4 1 2 4 3 6 3 4 3 4 4 2 5 0 2 6 2 3 4 10 8 12 14 13
9 5 11 20 4 4 7 5 3 6 5 5 4 1 4 4 3 8 3 4 6 3 0 1 1 3 6 3 0 2 3 3 3 2 5 3 5 4 4 3 8 5 6 11 15
6 4 8 12 8 3 4 4 6 5 2 7 6 4 6 3 5 4 7 1 12 6 12 3 3 8 7 4 3 3 3 3 3 3 3 9 7 5 4 3 5 13 19 19 19
11 4 6 4 6 7 2 5 6 6 7 12 5 7 6 4 10 8 4 8 5 6 4 5 6 7 11 8 10 13 12 9 10 10 10 6 10 7 8 5 12 7 6 8 8
8 7 10 7 10 8 9 7 9 7 3 3 11 12 6 5 3 12 11 9 6 4 4 2 2 2 2 7 10 12 10 13 11 13 12 16 19 11 19 7 6 7 8 10 10
18 11 4 6 7 4 3 5 9 10 4 20 11 6 6 8 23 32 29 28 16 12 4 4 2 2 3 3 5 1 6 7 4 4 3 3 8 8 3 3 5 14 11 8 11
Wind_Direction
354 351 347 345 342 338 335 336 333 329 327 327 328 328 330 335 330 326 347 336 329 333 333 314 102 120 170 184 198 154 72 204 230 232 157 164 136 89 118 128 115 133 159 176 165
354 350 346 345 341 340 337 334 331 330 325 326 325 325 328 334 355 309 347 339 328 331 336 325 123 141 179 195 192 140 154 219 348 84 182 166 130 135 139 132 89 107 131 147 162
359 357 353 352 349 347 344 340 335 331 325 322 322 325 326 332 80 330 336 333 333 335 339 350 169 147 198 171 193 187 202 147 3 12 138 142 127 146 133 225 184 166 158 161 162
359 357 356 357 353 353 349 346 340 331 326 327 325 326 329 344 61 350 339 337 345 357 355 13 91 171 210 183 162 197 49 96 69 27 67 106 155 174 179 226 204 188 174 168 173
357 357 359 358 357 358 351 347 342 333 328 326 328 334 76 46 32 337 338 339 357 352 10 151 293 295 293 135 132 135 128 78 110 82 67 111 150 214 145 128 164 167 171 173 176
356 359 0 1 356 353 349 344 338 329 324 328 354 89 50 291 325 335 341 354 7 13 23 138 21 338 319 43 79 75 93 118 123 87 68 66 158 203 165 145 152 166 171 176 184
359 1 359 359 355 352 352 350 352 350 1 29 87 114 31 68 350 343 349 349 5 7 3 31 145 67 68 63 53 130 68 20 162 160 121 156 259 224 180 171 159 168 174 176 189
357 358 356 354 354 356 350 355 9 357 22 74 106 100 92 13 5 350 359 351 339 344 359 44 108 107 64 116 66 117 98 24 132 141 175 137 257 254 180 177 174 179 180 185 186
355 354 350 351 350 357 352 349 358 22 76 90 81 26 20 351 343 8 2 356 42 43 14 56 48 83 110 96 26 305 222 202 205 190 125 193 276 359 170 182 178 187 189 191 193
353 351 347 350 350 354 352 336 323 44 122 67 45 315 19 332 335 7 2 21 66 54 157 68 74 57 23 69 212 188 236 293 184 224 158 210 254 251 182 192 194 196 195 195 202
350 349 346 347 345 351 353 342 153 125 56 75 44 56 332 347 23 359 360 21 39 288 90 203 67 56 249 33 175 148 146 230 155 350 260 237 257 228 220 210 208 206 201 198 203
347 349 344 346 343 352 4 19 66 164 132 89 37 346 353 10 8 349 11 46 33 35 27 28 118 166 320 25 38 46 48 300 113 183 168 290 266 255 211 216 206 204 203 202 198
346 348 342 343 337 348 10 25 36 143 123 176 285 238 356 4 26 349 10 5 44 50 29 141 152 213 90 63 30 76 133 356 268 313 234 325 275 238 231 209 207 211 203 200 196
346 347 343 349 347 344 351 352 4 155 76 199 176 268 354 4 221 359 12 24 38 69 68 113 204 137 200 93 350 228 9 18 3 44 240 99 287 297 245 215 200 198 203 193 199
348 347 351 359 345 342 336 328 229 136 24 164 175 319 320 283 337 32 27 46 83 14 73 270 138 47 94 88 329 140 45 31 84 40 35 289 259 267 109 271 258 235 195 197 201
348 349 17 4 349 335 331 303 175 54 268 19 119 306 12 216 217 176 29 56 87 126 54 103 49 60 127 82 50 140 126 156 53 97 331 241 206 273 195 220 195 175 180 179 167
347 355 25 4 353 346 339 160 26 119 356 351 331 349 347 260 170 149 144 5 122 66 269 99 64 54 34 140 5 44 64 332 346 12 228 318 94 251 290 289 219 183 173 163 172
354 24 17 4 358 352 349 63 60 19 360 0 333 309 201 26 248 216 155 271 228 104 85 115 324 98 315 152 171 176 147 209 252 234 287 32 235 262 277 338 121 159 170 172 181
357 63 12 3 358 357 33 53 221 340 302 339 322 321 4 6 297 341 202 194 193 147 153 82 281 147 55 44 65 265 95 250 270 77 45 257 288 295 4 35 76 120 159 173 184
2 56 11 5 0 3 65 91 60 24 331 356 326 37 335 330 343 19 294 204 157 98 142 232 336 225 133 81 357 143 184 43 341 283 282 293 286 320 291 202 170 168 179 181 187
15 42 6 5 11 33 78 17 17 0 9 9 329 313 329 347 333 297 253 303 104 145 81 144 102 287 98 191 179 24 346 23 118 186 206 282 279 215 265 206 201 202 191 187 181
15 40 6 5 39 26 36 331 343 341 348 343 335 278 288 357 306 285 329 28 75 144 145 183 154 239 235 252 187 178 184 162 133 283 79 136 278 275 319 359 172 207 213 204 197
1 347 7 23 59 354 331 346 352 3 6 7 301 333 351 314 321 321 357 11 52 9 165 126 262 346 332 29 112 224 220 134 110 77 211 154 264 334 348 41 101 137 214 226 239
18 21 360 48 52 40 345 358 347 19 15 336 266 309 359 293 268 286 283 28 343 326 314 307 246 214 232 239 138 249 213 217 169 164 218 226 260 298 324 84 43 318 295 278 280
29 39 16 327 338 346 38 18 10 0 350 327 337 23 338 296 302 275 329 319 288 287 269 171 224 239 259 298 284 275 272 220 209 231 236 264 245 243 261 257 299 306 319 303 322
43 4 344 305 334 4 6 12 15 348 290 333 352 341 336 324 347 305 300 288 277 25 20 328 305 341 275 269 270 279 325 292 232 242 258 271 281 276 283 283 313 323 316 315 335
23 4 312 305 357 8 28 352 345 351 1 33 19 3 338 320 309 293 285 277 264 282 305 271 248 196 248 345 350 46 338 26 318 71 241 258 275 253 334 351 342 316 325 339 339
Height
1509 1505 1501 1497 1493 1490 1486 1484 1482 1480 1478 1477 1475 1473 1472 1470 1469 1468 1467 1467 1465 1464 1463 1463 1462 1463 1464 1465 1466 1467 1475 1476 1464 1461 1465 1467 1470 1475 1477 1479 1482 1485 1486 1488 1494
1509 1504 1499 1495 1492 1488 1484 1481 1479 1478 1476 1475 1473 1472 1470 1469 1468 1467 1469 1466 1465 1463 1462 1461 1461 1462 1463 1463 1464 1466 1474 1464 1466 1465 1467 1467 1468 1473 1476 1479 1484 1484 1488 1491 1494
1508 1503 1498 1494 1490 1486 1483 1480 1477 1475 1475 1473 1472 1470 1469 1468 1469 1468 1468 1465 1464 1462 1461 1460 1460 1461 1463 1462 1463 1462 1467 1463 1466 1465 1465 1467 1470 1472 1474 1479 1476 1479 1484 1489 1492
1507 1501 1497 1493 1489 1485 1482 1479 1476 1474 1472 1471 1470 1469 1467 1467 1470 1468 1467 1465 1463 1461 1460 1459 1459 1460 1460 1461 1460 1463 1464 1463 1467 1467 1466 1468 1469 1471 1472 1471 1472 1477 1482 1486 1490
1506 1500 1496 1492 1488 1485 1482 1478 1475 1473 1471 1469 1468 1467 1467 1467 1468 1467 1466 1464 1463 1460 1459 1459 1459 1459 1460 1459 1460 1461 1465 1467 1468 1469 1469 1470 1471 1471 1471 1470 1471 1475 1481 1484 1487
1504 1499 1495 1491 1488 1484 1480 1477 1474 1472 1470 1468 1467 1467 1467 1468 1467 1466 1465 1463 1462 1461 1460 1460 1459 1460 1460 1461 1462 1463 1464 1468 1469 1470 1471 1472 1473 1473 1473 1471 1473 1475 1479 1483 1486
1503 1498 1493 1489 1485 1482 1479 1475 1473 1471 1469 1468 1468 1467 1468 1469 1467 1465 1463 1462 1462 1462 1461 1461 1460 1461 1461 1463 1464 1465 1467 1468 1469 1470 1472 1473 1473 1469 1468 1470 1472 1475 1479 1483 1485
1502 1497 1493 1488 1483 1480 1477 1474 1472 1470 1469 1468 1468 1468 1468 1467 1466 1465 1463 1461 1461 1461 1462 1462 1462 1462 1463 1465 1466 1468 1469 1473 1470 1471 1473 1474 1465 1462 1465 1468 1471 1474 1477 1480 1483
1500 1495 1491 1487 1483 1479 1476 1473 1472 1470 1469 1469 1469 1469 1469 1468 1466 1465 1462 1460 1459 1460 1461 1462 1463 1464 1465 1469 1478 1472 1476 1473 1472 1470 1473 1475 1466 1464 1464 1467 1470 1472 1475 1478 1481
1499 1494 1490 1485 1481 1478 1474 1471 1471 1471 1470 1470 1469 1472 1470 1469 1466 1465 1463 1460 1459 1460 1461 1462 1463 1467 1471 1477 1487 1473 1474 1467 1470 1473 1472 1473 1475 1468 1466 1467 1467 1470 1472 1475 1478
1498 1492 1488 1484 1480 1477 1473 1469 1472 1471 1469 1471 1472 1470 1469 1468 1466 1465 1462 1461 1460 1460 1462 1461 1469 1475 1481 1475 1479 1484 1485 1482 1475 1474 1474 1472 1468 1465 1464 1464 1464 1465 1467 1470 1473
1495 1490 1486 1482 1478 1476 1472 1469 1469 1470 1469 1469 1470 1470 1468 1466 1465 1465 1462 1462 1460 1461 1460 1468 1476 1475 1473 1472 1472 1472 1473 1469 1474 1474 1477 1473 1467 1458 1456 1453 1453 1457 1461 1465 1470
1493 1488 1484 1480 1478 1475 1472 1470 1469 1469 1470 1469 1469 1468 1468 1467 1466 1465 1463 1462 1461 1463 1466 1469 1474 1473 1473 1476 1473 1475 1479 1475 1478 1474 1469 1471 1459 1450 1440 1441 1446 1449 1454 1459 1463
1491 1486 1482 1480 1479 1476 1474 1472 1470 1469 1473 1469 1468 1468 1467 1466 1467 1465 1464 1465 1462 1466 1467 1472 1472 1473 1472 1477 1478 1474 1480 1479 1478 1480 1482 1477 1469 1445 1441 1442 1441 1444 1448 1453 1458
1490 1484 1480 1478 1479 1476 1476 1472 1471 1472 1494 1468 1467 1467 1466 1468 1466 1466 1465 1464 1467 1467 1469 1472 1472 1472 1473 1478 1479 1478 1480 1480 1482 1488 1495 1482 1487 1453 1440 1441 1443 1442 1445 1450 1455
1487 1482 1479 1478 1475 1474 1472 1472 1473 1476 1481 1466 1466 1465 1465 1465 1465 1465 1465 1466 1466 1467 1470 1475 1476 1477 1479 1479 1479 1480 1480 1481 1483 1492 1505 1474 1463 1455 1446 1440 1438 1441 1444 1449 1455
1485 1480 1478 1477 1474 1471 1470 1472 1481 1483 1467 1472 1470 1467 1467 1464 1464 1464 1465 1470 1474 1482 1471 1476 1478 1480 1480 1480 1480 1484 1487 1493 1501 1505 1489 1477 1473 1453 1445 1438 1436 1436 1442 1448 1454
1483 1480 1480 1475 1472 1469 1468 1472 1482 1475 1479 1475 1471 1468 1467 1465 1464 1463 1466 1475 1469 1475 1486 1485 1483 1490 1484 1486 1485 1490 1493 1475 1475 1487 1469 1477 1473 1439 1444 1439 1435 1436 1442 1448 1453
1482 1481 1479 1474 1472 1469 1469 1487 1493 1488 1485 1483 1474 1469 1466 1464 1467 1465 1467 1473 1470 1468 1482 1490 1479 1485 1485 1486 1489 1494 1504 1493 1483 1494 1493 1481 1454 1445 1444 1443 1441 1442 1446 1450 1454
1483 1480 1479 1475 1473 1471 1473 1484 1489 1488 1487 1484 1482 1475 1475 1472 1470 1470 1471 1466 1467 1468 1470 1480 1490 1484 1487 1488 1492 1493 1496 1497 1501 1487 1498 1479 1465 1435 1447 1447 1445 1446 1448 1451 1454
1483 1482 1483 1479 1476 1474 1490 1491 1488 1488 1487 1487 1485 1482 1477 1478 1477 1472 1472 1466 1464 1469 1470 1476 1490 1489 1486 1493 1490 1500 1502 1504 1496 1491 1484 1493 1453 1449 1444 1442 1443 1445 1447 1449 1452
1486 1488 1488 1483 1483 1486 1492 1490 1490 1489 1488 1487 1487 1485 1481 1481 1479 1474 1468 1470 1467 1468 1470 1471 1488 1492 1481 1491 1490 1490 1487 1489 1483 1488 1499 1498 1469 1448 1446 1442 1442 1446 1449 1450 1451
1490 1490 1490 1487 1498 1500 1496 1493 1491 1491 1490 1489 1487 1483 1482 1482 1486 1478 1470 1472 1471 1471 1472 1470 1478 1493 1478 1488 1486 1486 1486 1488 1496 1494 1499 1490 1473 1450 1448 1446 1446 1449 1450 1450 1450
1495 1497 1494 1494 1499 1499 1499 1497 1496 1493 1491 1491 1487 1485 1487 1483 1480 1477 1472 1471 1472 1472 1472 1471 1471 1466 1468 1464 1472 1479 1479 1483 1480 1488 1490 1467 1466 1458 1454 1450 1449 1450 1448 1447 1446
1502 1509 1509 1508 1501 1500 1499 1499 1499 1498 1495 1491 1489 1491 1491 1486 1482 1477 1475 1472 1468 1468 1468 1470 1471 1467 1461 1462 1463 1463 1463 1469 1476 1467 1464 1458 1459 1461 1450 1450 1445 1444 1443 1443 1442
1512 1514 1511 1507 1505 1503 1504 1506 1504 1502 1499 1496 1496 1493 1492 1492 1493 1487 1481 1479 1474 1470 1472 1471 1468 1466 1469 1461 1459 1458 1457 1451 1457 1463 1461 1455 1451 1447 1444 1444 1444 1443 1442 1440 1439
1517 1516 1515 1509 1509 1507 1511 1509 1506 1504 1499 1501 1499 1495 1494 1491 1488 1479 1476 1473 1474 1474 1475 1473 1469 1469 1472 1461 1459 1463 1470 1465 1465 1462 1463 1464 1450 1444 1444 1442 1442 1441 1439 1438 1438